Timeline UpdatesTrip UpdatesNews PostsPvt Posts♥♥Travel TipsAdmin PostsConv PostsFollowed PostsChat RequestsBlog PostsPNR Posts

Disclaimer
Search
 
 
Sat Oct 25, 2014 06:58:49 ISTHomeTrainsΣChainsAtlasPNRForumGalleryNewsFAQTripsMembersLoginFeedback
No Recent News for this Train
Other Trains in the News **new
Latest...
Change in timings ex - Originating and Terminating Station ex 01.09.2014
Sun Aug 31, 2014 (07:08AM)
⇐ Return Journey: Train# 15484

14083⇒15483/Sikkim Mahananda Express

NO Time-Table Change.
Sep 29 (1:56PM)
Change Departure Station:
Change Arrival Station:
Post a Train Travel TipPost a Train Travel Tip **new
Post a Comment/Question/Picture/VideoPost a Comment/Question/Picture/Video
Pantry/Catering
✓ Pantry Car Avbl
✓ Catering Avbl
RSA - Rake Sharing
Rake/Coach Composition
LOCO-SLR-GS-GS-GS-AB-B1-PC-S11-S10-S9-S8-S7-S6-S5-S4-S3-S2-S1-GS-GS-GS-SLR
Loco
SGUJ WDP-4 (APDJ to PNBE), GZB/MGS WAP-4 (PNBE to DLI)
News    PNR    Forum    Time-Table    Availability    Fare Chart    Map    Arr/Dep History    Trips    Gallery    ΣChains    X/O    Timeline    
Travel Time: 15h 35m    29 halts    Distance: 659 km    Avg Speed: 42 km/hr
Type: Mail/Express
Zone: NFR/Northeast Frontier
Departs @ 09:50 (Avg 2h 1m late)
Platform# 1
SMTWTFS
Alipur Duar Junction/APDJ 
Arrives @ 01:25 +1 night (Avg 2h 4m late)
Platform# 4
SMTWTFS
Patna Junction/PNBE 

29 halts. 130 intermediate Stations between Alipur Duar Junction and Patna Junction

Show ALL intermediate Stations  

#TrkCodeStation NameX/OArrivesAvgDepartsAvgHaltPFDay#KmSpeedElevZoneAddress
1|--|APDJAlipur Duar Junction (3)»  -09:50+2:01110.07053mNFRDist - Alipurduar, West Bengal
2|--|HSAHasimara (3)X  10:20+2:1010:22+2:112m--134.863123mNFRDist - Alipurduar, West Bengal
3|--|DLODalgaon (3)  10:46+2:1610:47+2:171m1160.138 NFRDist : Alipurduar, West Bengal
4|--|BNVBinnaguri (3)  11:01+2:1011:02+1:591m--169.165132mNFRDist : jalpaiguri, West Bengal
5|--|NMZNew Mal Junction (3)  11:43+1:4611:48+1:455m--1113.443161mNFRDist - Jalpaiguri, West Bengal
6|--|SGUJSiliguri Junction (5)X  12:55+1:5213:00+1:415m--1161.212120mNFRDist-Darjeeling Siliguri-734001, West Bengal
7|--|NJPNew Jalpaiguri Junction (8)X  13:35+1:5813:55+2:0120m31168.577114mNFRCity-Siliguri . Dist-Jalpaiguri, West Bengal
8%==%AUBAluabari Road (2)O  14:39+1:5814:41+1:492m21225.2630mNFRDist - uttar Dinajpur, West Bengal
9%==%KNEKishanGanj (3)O  15:10+1:5515:15+1:555m21255.87152mNFRKishanganj, Bihar
10%==%DLKDalkhola (3)X  15:39+1:5615:40+1:571m101284.35844mNFRDalkola, West Bengal
11%==%BOEBarsoi Junction (3)X  16:10+2:0316:12+2:052m--1313.45337mNFRdist- katihar, Bihar
12%==%AZRAzamnagar Road (3)X  16:27+2:0216:28+2:031m--1326.73134mNFRAzamnagar, Bihar
13%--%LAVLabha (2)  17:10+2:1317:11+2:141m11348.41529mNFRDist : Katihar, Bihar
14%--%KIRKatihar Junction (7)X  18:45+1:5519:00+1:5315m51371.44635mNFRKatihar 854105, Bihar
15%-=%SMOSemapurX  19:15+1:4219:16+1:421m--1382.96535mECRKatihar, Bihar
16%==%CRRKaragola Road  19:26+1:4419:27+1:461m--1393.67836mECRLachhmipur, Bihar
17%=-%KUEKurselaX  19:40+1:5519:41+1:581m--1410.64831mECRNH 31, Bihar
18%==%NNANaugachia (3)X  20:04+2:0120:05+2:021m--1429.16437mECRBhagalpur, Bihar
19%==%THBThana Bihpur Junction (3)  20:20+2:0620:21+2:071m--1445.05139mECRThana Bihpur, Bihar
20%==%NNRNarayanpur (2)X  20:30+2:0620:31+2:141m--1452.75439mECRNarayanpur, Bihar
21%==%PSRPasraha (3)  20:44+2:1120:45+2:151m--1464.35341mECRPasraha, Bihar
22%==%MSKMahes Khunt (2)X  20:59+2:1721:00+2:201m--1476.65737mECRMaheshkhunt, Bihar
23%==%MNEMansi Junction (4)XO  21:11+2:2421:12+2:271m--1487.03343mECRMansi, Bihar
24%=-|KGGKhagaria Junction (3)X  21:28+2:2821:29+2:291m--1495.86243mECRKhagaria, Bihar
25%==%SKJSahibpur Kamal Junction (2)  21:41+2:3221:42+2:261m--1508.24241mECRShahpur Kamal, Bihar
26%==%LKNLakhminia (3)X  21:56+2:2621:57+2:271m--1517.93645mECRBegusarai, Bihar
27%==%BGSBegusarai (3)  22:27+2:1522:28+2:141m--1535.72246mECRBegusarai, Bihar
28%--/BJUBarauni Junction (9)X  23:05+1:5823:10+2:005m11549.22849mECRBegusarai, Bihar
29/--/MKAMokama Junction (4)  23:54+2:3023:56+2:312m31569.88848mECRPatna, Bihar
30/==/BKPBakhtiyarpur Junction (5)X  00:26+2:2400:28+2:252m--2613.74851mECRPatna, Bihar
31/==/PNBEPatna Junction (10)•X  01:25+2:0401:50+2:0925m42659.13557mECRPatna 800001, Bihar
32/==/DNRDanapur (5)  02:06+2:0702:08+2:082m--2668.59158mECRKhagaul, Bihar
33/==/ARAAra Junction (3)X  02:34+2:4302:36+2:442m--2708.07163mECRDistt: Bhojpur Ph 06182-233411, Bihar
34/==/BXRBuxar (3)X  03:34+2:3903:36+2:392m22776.54767mECRBuxar, Bihar
35/==/MGSMughal Sarai Junction (8)  05:35+1:5805:45+2:0610m42870.44583mECRDistt: Chandauli Pin 232101, Uttar Pradesh
36/==/MZPMirzapur (3)XO  07:09+2:4107:10+2:441m--2933.64088mNCRMirzapur, Uttar Pradesh
37/==/BDLVindhyachal (3)  07:21+2:3407:22+2:361m--2940.97788mNCRMirzapur, Uttar Pradesh
38/==/NYNNaini Junction (4)  08:20+3:2408:22+3:252m221015.72498mNCRAllahabad, Uttar Pradesh
39/==/ALDAllahabad Junction (10)XOO  08:40+3:2708:55+3:3515m321022.864100mNCRAllahabad 211003, Uttar Pradesh
40/==/FTPFatehpur (3)  10:44+3:1210:45+3:131m--21139.552120mNCRFatehpur, Uttar Pradesh
41/==/CNBKanpur Central (10)X  12:15+3:1212:25+3:1610m521217.129128mNCRKANPUR-208 001, Uttar Pradesh
42/==/PNKPanki (3)XO  12:49+3:1112:50+3:121m--21228.637129mNCRKANPUR-208 020, Uttar Pradesh
43/==/RURARura (4)  13:43+2:3513:44+2:361m--21261.457137mNCRJhinjhak, Uttar Pradesh
44/==/JJKJhinjhak (3)  14:04+2:3814:05+2:391m321280.570140mNCRAuraiya, Uttar Pradesh
45/==/PHDPhaphund (4)  14:22+2:5314:23+2:561m--21300.363146mNCRdist. Auraiya, Uttar Pradesh
46/==/ULDAchalda (3)X  14:39+2:4014:40+2:451m--21317.165147mNCRDist. Auraiya(05688-1072), Uttar Pradesh
47/==/BNTBharthana (3)X  14:58+2:3914:59+2:451m--21336.652147mNCRBharthana, Uttar Pradesh
48/==/ETWEtawah (5)  15:22+2:4315:23+2:441m221356.574154mNCRDistt. Etawah, Uttar Pradesh
49/==/SKBShikohabad Junction (4)  16:08+2:5616:09+2:591m321411.957166mNCRDistrict Firozabad, Uttar Pradesh
50/==/FZDFirozabad (4)XO  16:30+3:2916:31+3:311m321431.816164mNCRFirozabad, Uttar Pradesh
51/==/TDLTundla Junction (5)XO  17:35+3:0017:45+2:5910m221448.370167mNCRDistt.Firozabad, Uttar Pradesh
52/==/JLSJalesar Road (1)X  18:09+2:2318:10+2:241m121476.255172mNCRMDR 106W, Uttar Pradesh
53/==/HRSHathras Junction (3)X  18:32+2:1218:33+2:131m--21496.382183mNCRMahamaya Nagar(05722-242803), Uttar Pradesh
54/==/ALJNAligarh Junction (4)XO  18:55+2:4019:00+2:405m221526.449192mNCRAligarh, Uttar Pradesh
55/==/KRJKhurja Junction (4)XO  19:53+1:1919:58+1:195m--21569.935199mNCRBulandshahr, Uttar Pradesh
56/==/GZBGhaziabad Junction (6)X  21:45+1:3721:47+1:372m321632.648217mNRGhaziabad, Uttar Pradesh
57/==/DSAShahdara Junction (4)  22:04+2:1422:05+2:141m--21646.211212mNRCircular Rd, Delhi NCT
58/==/DLIOld Delhi Junction (16)  22:40+2:40-1121652.5-219mNRNear Chandni Chowk Metro Station, Delhi NCT
Scroll to Top
Scroll to Bottom